Wind_Speed
8 11 17 11 12 13 11 14 8 9 8 13 4 11 6 14 11 18 18 17 18 27 19 21 12 5 8 6 5 6 11 12 12 13 12 14 17 18 19 21 23 19 21 22
10 21 8 9 14 19 22 20 16 17 14 19 7 12 17 19 12 21 14 12 15 14 14 26 21 14 3 7 8 6 7 9 12 14 15 18 21 21 23 22 23 26 31 28
16 6 9 16 13 19 18 19 17 16 15 12 11 19 23 26 24 9 5 11 18 17 20 23 22 24 10 2 9 12 7 12 15 17 19 20 23 21 20 23 21 23 23 24
19 17 15 15 17 15 20 15 17 19 13 13 19 15 22 13 14 9 12 20 10 19 27 9 14 13 9 4 11 12 10 14 17 22 23 21 21 20 22 18 15 15 21 22
24 16 14 19 20 13 19 17 17 13 11 15 18 18 4 8 7 6 12 11 6 7 6 14 15 4 2 9 11 7 9 11 19 25 27 21 20 19 20 13 11 10 10 23
24 16 19 18 15 19 16 15 17 15 13 15 24 19 12 11 7 6 6 3 15 11 13 16 12 12 12 8 10 5 7 15 24 23 26 23 22 18 13 9 11 8 5 12
22 23 19 15 17 14 17 15 10 6 4 10 9 11 11 11 10 8 16 17 12 13 13 8 7 10 8 12 2 1 7 16 18 21 22 21 21 19 6 7 7 5 5 7
24 19 21 24 24 18 17 19 13 5 3 7 16 8 6 20 10 19 19 14 3 2 2 6 7 8 4 3 4 5 13 14 17 18 21 19 22 15 11 11 9 8 4 3
12 26 20 25 26 21 20 18 23 21 25 16 12 10 6 11 7 17 14 11 6 4 3 7 9 10 5 5 6 8 11 10 13 17 18 20 22 17 16 17 15 11 8 4
30 30 22 18 24 26 14 18 11 15 3 6 13 5 12 8 16 8 11 14 14 6 2 7 10 2 7 5 8 11 8 9 9 15 16 19 17 21 18 16 16 20 13 9
24 23 28 19 9 23 19 17 22 20 17 7 1 4 6 14 5 10 11 15 16 12 5 7 5 3 7 10 8 8 8 7 6 12 15 17 17 14 17 20 19 11 12 12
27 30 27 27 17 14 21 20 22 21 16 16 6 3 11 19 22 15 24 23 21 15 5 7 6 5 8 6 2 2 13 10 2 8 12 15 15 14 10 7 11 12 13 12
25 32 17 15 22 18 23 16 23 28 21 26 6 6 21 18 16 13 30 34 41 15 8 8 5 5 5 6 5 4 4 5 5 5 8 10 12 12 12 10 10 12 12 10
18 9 23 22 23 7 9 18 19 22 23 24 21 17 18 15 15 21 20 14 36 15 8 7 4 4 5 4 7 3 2 2 4 7 9 10 10 10 11 10 8 8 9 9
14 11 13 12 21 22 19 19 20 20 22 21 21 15 17 8 8 1 3 13 11 11 11 9 8 7 8 5 6 4 4 4 4 7 11 12 11 10 10 10 9 7 5 4
17 21 18 18 20 19 19 21 18 16 27 20 17 14 16 7 6 10 11 12 7 13 10 10 13 13 8 6 4 3 6 8 9 10 11 11 12 12 11 11 10 8 4 3
16 13 16 20 18 19 22 21 12 12 17 12 14 9 16 16 11 5 13 14 12 16 16 12 12 9 12 10 7 7 10 12 16 16 17 15 12 11 12 12 10 6 4 4
9 12 22 14 16 10 22 24 15 14 11 10 14 9 15 9 11 10 14 11 13 17 12 11 11 12 11 9 10 11 11 16 20 19 20 17 15 12 11 9 5 3 4 5
10 13 9 8 21 18 19 16 7 7 12 10 8 12 9 7 9 17 18 16 16 13 11 12 11 11 12 13 13 14 17 18 21 22 22 23 21 14 8 7 4 5 7 9
16 17 17 15 4 4 20 23 23 10 8 6 12 10 10 12 13 12 11 12 15 13 12 14 15 13 13 14 16 16 18 21 21 22 21 21 18 15 9 8 9 11 8 11
30 23 22 20 13 9 11 8 6 20 15 12 10 9 13 14 13 8 9 9 9 13 16 14 13 14 14 15 17 20 22 25 23 18 17 15 15 13 11 12 10 11 11 11
30 36 27 22 21 18 16 9 17 19 20 19 15 15 15 14 13 14 15 10 11 13 14 13 12 12 14 17 20 23 24 21 15 11 9 10 12 10 13 16 16 11 15 15
15 14 23 17 20 15 17 14 9 18 22 18 18 18 18 17 15 12 12 13 12 11 11 11 12 14 16 20 22 22 17 10 5 3 5 7 16 14 12 11 11 14 13 11
12 24 18 12 14 13 12 14 19 12 28 27 21 17 18 17 13 12 11 10 10 11 12 12 13 14 15 17 16 12 8 5 5 5 5 5 12 13 12 15 14 11 9 11
2 11 20 13 24 24 17 18 17 27 10 8 12 14 11 3 6 8 9 9 10 11 12 13 13 13 14 11 7 4 3 6 5 7 9 9 13 12 13 12 9 10 10 9
5 6 12 11 9 11 15 21 20 23 9 19 15 9 5 4 6 8 9 9 9 10 10 10 12 11 7 4 2 3 2 4 6 5 6 6 7 8 5 6 8 7 8 8
Wind_Direction
255 267 250 254 252 276 283 295 218 236 216 224 285 311 258 258 243 201 292 259 311 206 205 251 275 249 345 324 348 339 322 334 343 345 327 316 304 296 285 281 281 271 273 266
212 254 285 258 258 267 273 282 293 296 300 249 222 271 280 288 252 257 290 29 352 187 194 212 210 177 292 315 315 349 340 347 346 334 324 312 305 298 297 287 268 273 274 259
242 259 282 275 265 266 270 274 283 288 289 276 258 262 270 260 257 239 300 345 343 219 192 210 306 343 142 285 321 2 2 4 351 340 327 316 306 297 302 294 278 278 263 239
242 260 269 268 263 268 269 269 274 276 273 294 291 303 315 274 246 241 218 241 268 292 174 246 305 335 87 298 309 348 7 2 1 1 348 326 311 299 309 294 289 281 250 238
241 249 252 257 261 264 266 267 268 293 310 311 291 292 264 194 221 206 263 322 164 198 243 267 292 355 260 287 333 353 11 3 359 356 350 333 322 315 316 288 287 308 261 234
245 259 259 258 260 248 262 269 273 282 289 296 281 291 223 203 310 273 210 102 132 162 236 278 286 279 252 292 341 7 355 350 348 350 343 339 336 330 320 314 304 296 284 230
244 249 252 258 247 247 237 246 284 295 269 242 266 311 33 216 297 199 168 156 161 239 257 270 293 274 279 316 197 294 325 333 356 352 349 353 359 347 353 5 9 338 285 232
242 255 229 234 240 234 238 225 228 241 237 256 326 280 70 298 204 176 171 176 233 264 272 262 293 290 283 248 232 352 352 346 347 357 357 4 357 3 26 37 21 16 18 209
262 248 252 253 236 225 232 252 239 254 276 301 292 245 131 140 157 162 186 196 231 294 325 307 298 329 292 280 299 321 343 328 348 9 2 14 25 35 42 42 38 32 37 55
240 266 266 288 237 220 236 236 240 238 251 271 277 80 172 174 281 150 175 200 215 250 184 307 320 358 1 296 289 312 319 312 348 16 13 14 24 42 44 49 53 47 38 35
238 248 269 282 274 201 217 227 248 264 269 197 123 235 148 137 223 201 186 221 227 239 211 275 296 253 327 322 279 300 313 302 353 20 20 16 26 36 50 57 52 49 50 47
223 236 245 269 245 280 221 238 239 233 263 284 336 121 194 196 206 202 248 223 204 219 228 276 285 272 285 295 241 43 39 50 184 15 15 14 22 30 32 22 20 20 24 34
218 225 228 250 268 274 226 251 243 241 242 260 274 176 185 215 230 268 279 219 226 194 196 250 239 269 314 347 13 10 81 54 37 345 357 1 11 18 27 23 16 16 17 17
209 208 221 221 244 328 297 240 246 241 230 240 258 187 199 230 256 330 340 231 199 202 206 239 237 260 293 320 290 298 238 114 358 352 342 340 345 359 6 10 10 24 21 36
261 264 246 232 254 275 275 269 245 270 262 256 261 226 218 236 265 142 283 198 182 201 218 221 193 213 249 243 283 283 250 274 312 334 338 334 326 336 353 342 345 357 20 36
267 260 262 253 247 279 278 283 256 247 257 252 253 182 179 187 224 224 235 273 143 179 220 212 207 219 266 263 276 317 322 328 322 316 320 325 313 319 329 325 316 320 345 334
244 258 243 253 260 277 281 280 276 270 251 274 260 246 196 195 184 67 202 205 196 208 213 224 232 260 259 256 287 296 312 307 312 311 307 310 307 306 298 304 310 300 336 350
246 243 241 255 257 264 266 271 293 275 272 285 274 220 173 185 222 204 195 219 211 211 226 254 270 271 262 244 246 272 291 293 293 293 290 294 297 281 301 308 281 302 301 325
245 249 248 254 261 270 259 283 284 298 244 266 277 190 195 175 173 205 192 215 225 228 267 275 260 245 237 244 256 275 286 286 284 285 281 280 293 295 306 289 259 286 302 321
231 248 251 243 289 275 278 274 286 248 234 273 210 205 209 190 192 217 211 213 223 255 256 238 243 247 253 258 268 277 286 288 283 278 275 275 283 284 286 267 254 279 279 273
230 234 228 227 249 277 294 289 197 209 223 222 201 198 205 204 200 196 208 230 240 237 241 248 249 251 254 263 277 288 289 287 285 269 258 256 251 267 263 269 261 280 273 270
224 222 231 232 238 249 238 240 223 242 220 226 196 200 192 197 219 228 241 249 259 249 244 243 248 257 270 281 286 288 288 286 278 261 247 235 241 237 255 257 258 272 272 276
201 209 214 222 211 219 242 239 230 250 247 220 223 208 218 230 229 241 249 257 262 247 241 247 255 268 281 286 288 289 287 270 243 229 213 226 232 230 230 259 292 277 270 293
212 220 238 229 223 226 236 233 231 226 240 215 203 218 220 231 256 257 246 236 231 234 242 250 263 276 281 288 291 286 269 226 180 188 183 208 223 208 255 268 269 275 264 283
7 247 233 255 241 243 261 274 258 248 302 251 232 239 260 235 207 229 234 231 233 242 253 261 266 271 279 281 284 272 185 174 173 192 210 238 254 261 271 265 265 262 259 252
196 171 210 245 264 262 296 279 261 267 146 255 269 266 237 246 250 252 253 243 243 253 262 265 269 272 258 217 110 95 125 114 142 180 197 246 258 254 250 234 244 252 247 257
Height
3159 3160 3157 3158 3160 3162 3164 3165 3164 3164 3162 3163 3160 3158 3158 3156 3155 3153 3148 3151 3163 3158 3162 3168 3166 3159 3161 3166 3166 3163 3165 3165 3164 3162 3161 3161 3160 3160 3159 3158 3157 3157 3157 3159
3160 3154 3157 3158 3159 3161 3163 3163 3164 3162 3161 3160 3159 3157 3156 3155 3156 3159 3153 3152 3158 3154 3159 3166 3155 3157 3157 3160 3167 3164 3162 3163 3162 3159 3156 3155 3154 3153 3151 3150 3150 3149 3148 3151
3156 3154 3156 3158 3157 3159 3159 3159 3159 3160 3159 3159 3157 3153 3152 3152 3153 3153 3150 3146 3141 3142 3155 3162 3143 3142 3145 3157 3161 3163 3161 3161 3159 3155 3152 3150 3149 3147 3145 3143 3142 3142 3140 3142
3154 3153 3155 3156 3156 3157 3156 3157 3156 3156 3157 3157 3155 3151 3150 3148 3150 3150 3151 3152 3153 3129 3134 3152 3157 3155 3148 3157 3161 3161 3159 3159 3157 3152 3148 3147 3144 3141 3138 3137 3136 3134 3133 3136
3149 3151 3152 3153 3153 3155 3153 3154 3153 3152 3152 3153 3152 3151 3148 3148 3148 3147 3147 3148 3144 3145 3150 3152 3155 3154 3153 3160 3161 3159 3158 3157 3154 3148 3145 3143 3140 3136 3133 3131 3131 3129 3127 3130
3146 3148 3150 3150 3150 3151 3152 3151 3151 3150 3152 3153 3148 3148 3148 3147 3147 3146 3145 3145 3145 3143 3146 3150 3152 3153 3154 3158 3158 3158 3158 3157 3151 3147 3144 3140 3136 3132 3128 3127 3125 3125 3125 3127
3143 3143 3144 3147 3147 3147 3148 3150 3149 3151 3151 3150 3147 3143 3144 3146 3147 3149 3144 3144 3147 3151 3151 3151 3152 3153 3155 3155 3156 3158 3158 3154 3150 3149 3144 3140 3135 3131 3126 3125 3123 3123 3123 3124
3141 3140 3139 3141 3142 3144 3145 3146 3148 3151 3150 3145 3144 3140 3144 3139 3147 3150 3148 3147 3153 3154 3154 3154 3153 3153 3156 3156 3155 3155 3154 3151 3151 3149 3145 3141 3136 3130 3126 3124 3124 3123 3122 3122
3137 3135 3135 3138 3137 3141 3140 3142 3145 3145 3145 3143 3141 3141 3144 3146 3152 3152 3148 3148 3152 3153 3155 3155 3152 3152 3151 3150 3151 3152 3152 3153 3152 3148 3146 3142 3138 3132 3129 3126 3125 3125 3124 3124
3132 3134 3130 3131 3134 3136 3137 3141 3143 3142 3144 3146 3140 3140 3141 3146 3149 3151 3145 3147 3150 3148 3149 3151 3151 3151 3150 3149 3150 3151 3151 3152 3151 3149 3148 3144 3140 3135 3132 3129 3127 3127 3127 3127
3130 3132 3126 3128 3129 3130 3134 3135 3138 3139 3139 3139 3143 3141 3141 3142 3148 3147 3147 3145 3142 3145 3145 3145 3146 3150 3152 3151 3150 3151 3150 3149 3149 3150 3148 3145 3142 3139 3136 3133 3131 3129 3128 3128
3124 3126 3126 3125 3125 3128 3128 3131 3132 3132 3134 3135 3137 3143 3142 3141 3138 3139 3135 3141 3139 3145 3144 3145 3144 3146 3148 3149 3149 3148 3147 3145 3148 3149 3148 3147 3144 3141 3139 3137 3135 3133 3132 3130
3118 3119 3121 3124 3124 3124 3125 3126 3127 3127 3129 3131 3135 3140 3138 3136 3134 3136 3132 3126 3114 3142 3142 3145 3145 3146 3144 3146 3145 3145 3147 3147 3147 3147 3148 3147 3145 3142 3140 3137 3136 3134 3133 3130
3112 3115 3117 3119 3121 3124 3124 3124 3123 3124 3124 3127 3130 3131 3129 3125 3126 3127 3123 3118 3115 3134 3143 3146 3141 3141 3143 3141 3144 3145 3146 3147 3146 3147 3146 3146 3144 3143 3140 3137 3136 3135 3134 3132
3111 3112 3115 3115 3117 3120 3120 3119 3119 3119 3120 3124 3127 3124 3119 3122 3124 3122 3124 3121 3132 3140 3136 3141 3141 3142 3142 3140 3143 3143 3144 3145 3145 3145 3144 3143 3142 3141 3139 3138 3136 3134 3134 3133
3108 3108 3111 3112 3114 3116 3115 3115 3116 3116 3116 3118 3120 3120 3120 3120 3122 3124 3127 3125 3121 3133 3137 3138 3140 3140 3140 3139 3141 3142 3142 3143 3143 3142 3142 3141 3139 3138 3137 3136 3136 3135 3134 3133
3105 3106 3109 3109 3114 3115 3115 3113 3111 3113 3112 3113 3115 3116 3118 3120 3123 3124 3126 3126 3129 3133 3134 3139 3137 3137 3136 3139 3141 3142 3141 3140 3139 3138 3137 3136 3136 3135 3134 3133 3134 3134 3134 3134
3103 3105 3106 3108 3112 3111 3111 3110 3109 3108 3109 3106 3109 3112 3116 3118 3121 3124 3125 3129 3130 3132 3132 3135 3134 3135 3138 3139 3139 3140 3139 3137 3136 3135 3132 3132 3133 3133 3131 3131 3132 3133 3134 3134
3102 3104 3104 3106 3107 3107 3106 3107 3107 3107 3107 3103 3110 3111 3112 3114 3117 3118 3124 3123 3127 3130 3130 3133 3134 3135 3134 3135 3136 3136 3135 3134 3132 3130 3129 3128 3129 3130 3129 3130 3131 3131 3132 3132
3099 3101 3103 3103 3106 3105 3104 3104 3104 3105 3104 3103 3106 3108 3109 3112 3115 3116 3116 3121 3127 3129 3130 3132 3131 3130 3131 3132 3132 3132 3131 3129 3127 3125 3125 3125 3126 3126 3127 3128 3129 3130 3130 3130
3093 3095 3096 3098 3102 3102 3102 3099 3100 3100 3103 3099 3102 3104 3105 3110 3113 3116 3117 3120 3123 3127 3127 3127 3126 3126 3127 3127 3127 3127 3125 3122 3121 3120 3120 3121 3122 3123 3125 3125 3126 3126 3127 3127
3086 3089 3091 3095 3097 3100 3098 3099 3100 3097 3096 3095 3095 3098 3101 3108 3111 3113 3115 3118 3119 3121 3122 3122 3122 3123 3123 3122 3121 3120 3118 3116 3114 3113 3114 3115 3119 3120 3121 3122 3122 3123 3123 3123
3082 3083 3087 3091 3090 3090 3092 3094 3094 3091 3093 3096 3096 3097 3100 3103 3107 3110 3112 3114 3115 3116 3117 3117 3118 3118 3118 3117 3115 3113 3111 3109 3109 3111 3112 3113 3114 3116 3116 3117 3117 3119 3119 3118
3078 3078 3081 3086 3084 3085 3087 3090 3091 3091 3092 3088 3092 3096 3098 3099 3103 3105 3106 3107 3109 3111 3112 3113 3114 3113 3112 3111 3109 3107 3106 3106 3107 3109 3110 3110 3111 3111 3113 3115 3116 3115 3115 3116
3076 3075 3079 3083 3080 3080 3083 3085 3088 3086 3059 3082 3088 3090 3094 3096 3096 3099 3103 3105 3107 3108 3109 3109 3109 3108 3107 3106 3105 3104 3103 3103 3105 3107 3109 3108 3110 3110 3112 3112 3113 3113 3112 3112
3074 3076 3078 3079 3079 3077 3080 3081 3087 3091 3080 3087 3089 3090 3094 3094 3094 3097 3101 3103 3104 3104 3105 3105 3105 3104 3103 3103 3103 3102 3102 3103 3104 3106 3107 3108 3108 3108 3109 3109 3110 3110 3110 3110